Regional Weather Roundup
Issued by NWS

Home | Current Version | Previous Version | Graphics & Text | Print | Product List | Glossary On
Versions: 1 2 3 4 5 6 7 8 9 10 11 12 13 14 15 16 17 18 19 20 21 22 23 24 25 26 27 28 29 30 31 32 33 34 35 36 37 38 39 40 41 42 43 44 45 46 47 48 49 50
000
ASUS43 KFSD 201402
RWRSD

WEATHER ROUNDUP FOR SOUTH DAKOTA
NATIONAL WEATHER SERVICE SIOUX FALLS SD
900 AM CDT SAT SEP 20 2014

NOTE: "FAIR" INDICATES FEW OR NO CLOUDS BELOW 12,000 FEET WITH NO
SIGNIFICANT WEATHER AND/OR OBSTRUCTIONS TO VISIBILITY.


SDZ001>005-009-010-012>017-201500-
NORTHWEST AND NORTH CENTRAL SOUTH DAKOTA

CITY           SKY/WX    TMP DP  RH WIND       PRES   REMARKS
FAITH            N/A     62  49  62 W16       29.98R
MOBRIDGE       SUNNY     57  53  86 CALM      29.89S
$$

SDZ012>016-024>037-041>051-057-063-072>074-201500-
SOUTHWEST AND SOUTH CENTRAL SOUTH DAKOTA

CITY           SKY/WX    TMP DP  RH WIND       PRES   REMARKS
RAPID CTY ARPT SUNNY     63  48  58 W5        30.08R
PIERRE         SUNNY     60  51  72 W10       29.94R
CUSTER         SUNNY     59  43  55 W7        30.19R
ELLSWORTH AFB  SUNNY     61  49  63 W6        30.07R
PHILIP         SUNNY     58  51  78 W12       30.00R
PINE RIDGE     MOSUNNY   52  49  89 N5        30.11R
WINNER         FAIR      63  54  72 W9        29.99R
$$

SDZ004>011-016>023-039-040-201500-
NORTHEAST SOUTH DAKOTA

CITY           SKY/WX    TMP DP  RH WIND       PRES   REMARKS
ABERDEEN       SUNNY     62  54  74 CALM      29.89R
WATERTOWN      SUNNY     60  56  86 W8        29.89R
SISSETON         N/A     62  58  86 NW5       29.85S
$$

SDZ017-020-022-023-036>040-048>070-201500-
SOUTHEAST SOUTH DAKOTA

CITY           SKY/WX    TMP DP  RH WIND       PRES   REMARKS
SIOUX FALLS    MOSUNNY   66  58  75 W6        29.90R
HURON          SUNNY     61  53  75 CALM      29.91R
CHAMBERLAIN    SUNNY     61  55  82 W6        29.95S
MITCHELL       SUNNY     63  57  81 W5        29.93R
YANKTON        MOSUNNY   64  57  77 W6        29.91F
$$

ABBREVIATIONS USED IN REMARKS
   TC - TEMPERATURE IN CELSIUS
  WCI - WIND CHILL INDEX
   HX - HEAT INDEX
  VSB - VISIBILITY




USA.gov is the U.S. government's official web portal to all federal, state and local government web resources and services.